Regional Weather Roundup
Issued by NWS

Home | Current Version | Previous Version | Graphics & Text | Print | Product List | Glossary On
Versions: 1 2 3 4 5 6 7 8 9 10 11 12 13 14 15 16 17 18 19 20 21 22 23 24 25 26 27 28 29 30 31 32 33 34 35 36 37 38 39 40 41 42 43 44 45 46 47 48 49 50
000
ASUS43 KBIS 191702
RWRND

NORTH DAKOTA REGIONAL WEATHER ROUNDUP
NATIONAL WEATHER SERVICE BISMARCK ND
1200 PM CDT TUE SEP 19 2017

NOTE: "FAIR" INDICATES FEW OR NO CLOUDS BELOW 12,000 FEET WITH NO
SIGNIFICANT WEATHER AND/OR OBSTRUCTIONS TO VISIBILITY.


NDZ001>003-009>011-017-191800-
NORTHWEST NORTH DAKOTA

CITY           SKY/WX    TMP DP  RH WIND       PRES   REMARKS
WILLISTON      CLOUDY    57  53  86 W8        29.46R
MINOT          CLOUDY    68  61  78 SE16G29   29.44F
$$

NDZ018>021-031>035-040>046-191800-
SOUTHWEST NORTH DAKOTA

CITY           SKY/WX    TMP DP  RH WIND       PRES   REMARKS
BISMARCK       CLOUDY    66  51  58 SE17      29.47F
DICKINSON      LGT RAIN  58  50  75 NW18G25   29.47S
GARRISON         N/A     66  61  84 S18       29.46S
HETTINGER ARPT CLOUDY    63  46  54 W9        29.53R
$$

NDZ004>008-012>016-024-026-027-054-191800-
NORTHEAST NORTH DAKOTA

CITY           SKY/WX    TMP DP  RH WIND       PRES   REMARKS
GRAND FORKS    CLOUDY    65  63  93 SE18G26   29.66F
DEVILS LAKE    CLOUDY    62  61  96 SE22G28   29.57F
$$

NDZ022-023-025-028>030-036>039-047>053-191800-
SOUTHEAST NORTH DAKOTA

CITY           SKY/WX    TMP DP  RH WIND       PRES   REMARKS
FARGO          CLOUDY    72  63  73 SE17G28   29.67F
$$





USA.gov is the U.S. government's official web portal to all federal, state and local government web resources and services.